Location: Canne Fond
(12.0167°N, 61.7167°W)
Time: 20:38:31
(UTC+00:00)

Daily predictions for brighter satellites

Satellite Brightness Start Highest point End
(mag) Time Altitude Azimuth Time Altitude Azimuth Time Altitude Azimuth
Centaur AC-125 4.2 22:48:16 10° NW 22:51:48 46° NNE 23:05:36 10° ESE
Meteor 1-16 Rocket 4.5 22:48:51 10° N 22:54:07 48° E 22:59:32 10° SSE
Cosmos 1553 Rocket 4.0 22:48:23 10° N 22:54:25 66° E 23:00:31 10° SSE
Cosmos 2297 Rocket 2.6 22:51:07 10° NNW 22:56:43 70° WSW 23:02:20 10° S
SL-24 R/B 4.4 22:52:53 10° NNE 22:57:55 60° E 23:02:16 10° S
SL-14 R/B 3.8 22:54:30 10° SSE 22:58:04 36° E 23:01:40 10° NNE
Cosmos 2322 Rocket 2.2 22:53:29 10° S 22:59:01 62° ESE 23:04:31 10° NNE
Okean 1-7 Rocket 4.2 22:56:54 10° SSE 23:01:08 39° E 23:05:21 10° NNE
S3M 4.2 22:56:29 10° N 23:02:41 53° E 23:08:51 10° SSE
Okean-O 3.2 22:59:01 10° S 23:03:22 61° WSW 23:07:44 10° NNW
GPS 2-18 Rocket1 4.4 23:04:06 10° W 23:07:29 35° NNW 23:10:51 10° NE
Cosmos 2292 Rocket 3.5 23:04:30 10° SSW 23:07:31 59° W 23:11:08 10° N
CZ-4 R/B 1.6 23:03:43 10° S 23:07:45 73° WSW 23:11:43 10° NNW
Intelsat 5-2 Rocket 4.5 23:13:32 10° NW 23:15:49 16° N 23:17:33 10° NE
Cosmos 1626 2.0 23:12:25 10° S 23:16:06 82° E 23:19:47 10° N
Meteor 2-5 Rocket 4.3 23:12:32 10° SSW 23:18:12 66° W 23:24:00 10° N
CZ-2D R/B 4.3 23:15:25 10° S 23:19:07 47° W 23:22:49 10° NNW
SJ 16-02 1.4 23:15:15 10° NNW 23:19:39 83° WSW 23:24:01 10° S
USA 234 3.6 23:15:14 10° SSE 23:21:43 68° SW 23:28:14 10° NW
Cosmos 2228 3.4 23:18:46 10° NNE 23:22:55 42° E 23:27:03 10° SSE
BREEZE M DEB (TANK) 2.5 23:25:09 10° S 23:29:48 - ENE 23:27:02 22° SE
Delta 142 4.2 23:25:04 10° NW 23:30:09 49° NNE 23:33:07 18° E
Meteor 2-15 4.4 23:25:10 10° N 23:31:09 64° E 23:37:07 10° SSE
Cosmos 1606 Rocket 3.6 23:27:40 10° N 23:32:04 59° E 23:36:19 11° SSE
Cosmos 1818 3.9 23:27:25 10° SSW 23:32:47 71° WNW 23:38:10 10° NNE
Cosmos 2219 Rocket 4.0 23:35:33 13° E 23:35:33 13° E 23:36:36 10° ENE
IUS-17 SRM-1 4.4 23:14:44 10° WNW 23:35:30 73° NNE 23:38:20 22° ESE
Cosmos 2360 Rocket 2.1 23:30:31 10° S 23:36:04 67° ESE 23:41:39 10° NNE
Cosmos 2082 4.1 23:32:38 10° NNW 23:38:11 64° WSW 23:43:44 10° S
Cosmos 2227 Rocket 4.0 23:35:10 10° NW 23:39:56 29° WSW 23:44:43 10° SSW
CZ-2C R/B 3.3 23:35:09 10° SSE 23:40:58 76° ENE 23:46:38 10° N
Cosmos 858 Rocket 4.4 23:36:14 10° N 23:41:28 73° ENE 23:45:35 16° SSE
Hubble Space Telescope 1.2 23:37:32 10° WSW 23:41:37 62° NNW 23:45:42 10° NE
Cosmos 2263 Rocket 3.3 23:42:31 10° NNE 23:46:50 23° ENE 23:47:55 22° E
Cosmos 2333 Rocket 3.2 23:48:19 24° E 23:48:19 24° E 23:52:25 10° NE
Cosmos 1356 Rocket 4.2 23:44:57 10° NNE 23:48:39 30° E 23:48:55 30° E
Meteor 2-21 Rocket 4.4 23:43:35 10° S 23:49:46 74° E 23:55:57 10° N
ARGOS 3.2 23:46:47 20° SSE 23:50:30 61° ENE 23:55:50 10° N
Cosmos 1602 Rocket 3.8 23:49:10 29° SE 23:50:53 44° E 23:55:04 10° NNE
Cosmos 1898 Rocket 4.3 23:48:56 10° NNW 23:53:56 50° WSW 23:58:54 10° S
